SP4FDH-13 Weather Reports


Display with metric or nautical units.
time (UTC)temp
F
wind
direction
speed
MPH
gust
MPH
rain 1hr
in
rain 24hr
in
rain mn
in
humidity
%
barometer
mb
20260503053315 69 0.0 0.0 0.00 0.00 0.00 44 1014.8
20260503052338 69 0.0 0.0 0.00 0.00 0.00 45 1015.1
20260503051401 68 0.0 0.0 0.00 0.00 0.00 45 1014.9
20260503050423 68 0.0 0.0 0.00 0.00 0.00 46 1014.9
20260503045446 67 0.0 0.0 0.00 0.00 0.00 48 1014.9
20260503043531 63 0.0 0.0 0.00 0.00 0.00 57 1015.2
20260503042553 61 0.0 0.0 0.00 0.00 0.00 63 1015.3
20260503041616 60 0.0 0.0 0.00 0.00 0.00 66 1015.2
20260503040639 58 0.0 0.0 0.00 0.00 0.00 70 1015.4
20260503035702 57 0.0 0.0 0.00 0.00 0.00 73 1015.3
20260503034727 57 0.0 0.0 0.00 0.00 0.00 72 1015.3
20260503033751 56 0.0 0.0 0.00 0.00 0.00 72 1015.3
20260503032815 57 0.0 0.0 0.00 0.00 0.00 70 1015.3
20260503031840 57 0.0 0.0 0.00 0.00 0.00 67 1015.3
20260503030905 59 0.0 0.0 0.00 0.00 0.00 62 1015.1
20260503025928 60 0.0 0.0 0.00 0.00 0.00 60 1014.9
20260503024951 58 0.0 0.0 0.00 0.00 0.00 65 1015.1
20260503024015 56 0.0 0.0 0.00 0.00 0.00 70 1015.3
20260503023039 57 0.0 0.0 0.00 0.00 0.00 69 1015.3
20260503022103 58 0.0 0.0 0.00 0.00 0.00 65 1015.3
20260503021128 58 0.0 0.0 0.00 0.00 0.00 63 1015.4
20260503020152 59 0.0 0.0 0.00 0.00 0.00 61 1015.3
20260503015218 60 0.0 0.0 0.00 0.00 0.00 56 1015.3
20260503014242 62 0.0 0.0 0.00 0.00 0.00 53 1015.3
20260503013306 62 0.0 0.0 0.00 0.00 0.00 52 1015.3
20260503012330 62 0.0 0.0 0.00 0.00 0.00 52 1015.2
20260503011354 62 0.0 0.0 0.00 0.00 0.00 53 1015.3
20260503010418 63 0.0 0.0 0.00 0.00 0.00 52 1015.2
20260503005442 62 0.0 0.0 0.00 0.00 0.00 52 1015.3
20260503004506 62 0.0 0.0 0.00 0.00 0.00 52 1015.2
20260503003530 63 0.0 0.0 0.00 0.00 0.00 51 1015.2
20260503002554 63 0.0 0.0 0.00 0.00 0.00 50 1015.3
20260503001617 64 0.0 0.0 0.00 0.00 0.00 50 1015.4
20260503000640 63 0.0 0.0 0.00 0.00 0.00 53 1015.4
20260502235702 60 0.0 0.0 0.00 0.00 0.00 58 1015.5
20260502234725 59 0.0 0.0 0.00 0.00 0.00 62 1015.6
20260502233748 56 0.0 0.0 0.00 0.00 0.00 70 1015.8
20260502232812 56 0.0 0.0 0.00 0.00 0.00 75 1015.9
20260502231836 57 0.0 0.0 0.00 0.00 0.00 69 1015.9
20260502230900 56 0.0 0.0 0.00 0.00 0.00 71 1015.9
20260502225924 55 0.0 0.0 0.00 0.00 0.00 75 1016.0
20260502224948 54 0.0 0.0 0.00 0.00 0.00 79 1016.0
20260502224012 54 0.0 0.0 0.00 0.00 0.00 78 1016.1
20260502223036 54 0.0 0.0 0.00 0.00 0.00 79 1016.1
20260502222100 55 0.0 0.0 0.00 0.00 0.00 84 1016.2
20260502221125 55 0.0 0.0 0.00 0.00 0.00 81 1016.2
20260502220149 55 0.0 0.0 0.00 0.00 0.00 80 1016.2
20260502215214 55 0.0 0.0 0.00 0.00 0.00 73 1016.1
20260502214239 55 0.0 0.0 0.00 0.00 0.00 70 1016.1
20260502213303 56 0.0 0.0 0.00 0.00 0.00 68 1016.3
20260502212328 56 0.0 0.0 0.00 0.00 0.00 69 1016.2
20260502211352 56 0.0 0.0 0.00 0.00 0.00 68 1016.2
20260502210417 57 0.0 0.0 0.00 0.00 0.00 66 1016.3
20260502205441 57 0.0 0.0 0.00 0.00 0.00 64 1016.2
20260502204505 57 0.0 0.0 0.00 0.00 0.00 66 1016.3
20260502203530 58 0.0 0.0 0.00 0.00 0.00 69 1016.4
20260502202555 58 0.0 0.0 0.00 0.00 0.00 65 1016.2
20260502201620 58 0.0 0.0 0.00 0.00 0.00 64 1016.1
20260502200645 59 0.0 0.0 0.00 0.00 0.00 59 1016.2
20260502195710 59 0.0 0.0 0.00 0.00 0.00 59 1016.2
20260502194735 60 0.0 0.0 0.00 0.00 0.00 55 1016.1
20260502193800 61 0.0 0.0 0.00 0.00 0.00 54 1016.0
20260502192825 62 0.0 0.0 0.00 0.00 0.00 54 1016.1
20260502191850 63 0.0 0.0 0.00 0.00 0.00 55 1016.1
20260502190915 64 0.0 0.0 0.00 0.00 0.00 54 1016.1
20260502185940 63 0.0 0.0 0.00 0.00 0.00 50 1015.9
20260502185005 64 0.0 0.0 0.00 0.00 0.00 55 1016.0
20260502184032 66 0.0 0.0 0.00 0.00 0.00 51 1016.0
20260502183057 67 0.0 0.0 0.00 0.00 0.00 46 1015.8
20260502182123 69 0.0 0.0 0.00 0.00 0.00 43 1015.8
20260502181149 70 0.0 0.0 0.00 0.00 0.00 40 1015.6
20260502180214 72 0.0 0.0 0.00 0.00 0.00 37 1015.3
20260502170443 76 0.0 0.0 0.00 0.00 0.00 26 1014.6
20260502163559 77 0.0 0.0 0.00 0.00 0.00 26 1014.9
20260502162624 78 0.0 0.0 0.00 0.00 0.00 25 1014.9
20260502161649 78 0.0 0.0 0.00 0.00 0.00 24 1014.9
20260502160714 78 0.0 0.0 0.00 0.00 0.00 24 1015.1
20260502151917 80 0.0 0.0 0.00 0.00 0.00 22 1015.6
20260502150942 81 0.0 0.0 0.00 0.00 0.00 21 1015.5
20260502130508 87 0.0 0.0 0.00 0.00 0.00 19 1016.8
20260502123623 89 0.0 0.0 0.00 0.00 0.00 17 1017.0
20260502122646 88 0.0 0.0 0.00 0.00 0.00 18 1017.2
20260502121710 89 0.0 0.0 0.00 0.00 0.00 18 1017.4
20260502120735 88 0.0 0.0 0.00 0.00 0.00 18 1017.4
20260502115758 89 0.0 0.0 0.00 0.00 0.00 19 1017.8
20260502114821 88 0.0 0.0 0.00 0.00 0.00 19 1017.8
20260502113844 88 0.0 0.0 0.00 0.00 0.00 19 1017.9
20260502112908 87 0.0 0.0 0.00 0.00 0.00 19 1017.9
20260502111931 87 0.0 0.0 0.00 0.00 0.00 20 1018.2
20260502110954 86 0.0 0.0 0.00 0.00 0.00 20 1018.1
20260502110017 86 0.0 0.0 0.00 0.00 0.00 19 1018.1
20260502105041 86 0.0 0.0 0.00 0.00 0.00 20 1018.2
20260502104104 86 0.0 0.0 0.00 0.00 0.00 23 1018.6
20260502103128 86 0.0 0.0 0.00 0.00 0.00 23 1018.5
20260502102151 86 0.0 0.0 0.00 0.00 0.00 22 1018.6
20260502101215 85 0.0 0.0 0.00 0.00 0.00 23 1018.8
20260502100238 86 0.0 0.0 0.00 0.00 0.00 24 1018.9
20260502091437 85 0.0 0.0 0.00 0.00 0.00 27 1019.4
20260502090502 84 0.0 0.0 0.00 0.00 0.00 29 1019.6
20260502070934 76 0.0 0.0 0.00 0.00 0.00 39 1020.6
20260502065956 76 0.0 0.0 0.00 0.00 0.00 42 1020.8
20260502065019 74 0.0 0.0 0.00 0.00 0.00 45 1021.0
20260502064041 72 0.0 0.0 0.00 0.00 0.00 47 1021.1
20260502063104 71 0.0 0.0 0.00 0.00 0.00 48 1021.1
20260502062127 70 0.0 0.0 0.00 0.00 0.00 50 1021.1
20260502061150 69 0.0 0.0 0.00 0.00 0.00 55 1021.3
20260502060212 68 0.0 0.0 0.00 0.00 0.00 55 1021.2
20260502055233 67 0.0 0.0 0.00 0.00 0.00 61 1021.3
20260502054255 65 0.0 0.0 0.00 0.00 0.00 74 1021.6